Tracking 31027 objects as of 19-Jul-2025
HD Live streaming from Space Station
objects crossing your sky now

OBJECT A

Track OBJECT A now!
10-day predictions


NORAD ID: 57288
Int'l Code: 2023-095A
Perigee: 1,103.7 km
Apogee: 1,132.7 km
Inclination: 86.5 °
Period: 107.5 minutes
Semi major axis: 7489 km
RCS: Unknown
Launch date: July 9, 2023
Source: People's Republic of China (PRC)
Launch site: Jiuquan Satellite Launch Center, China (JSC)
Your satellite tracking list
FLOCK 4X 28
Track 1 satellite(s)




NASA's NSSDC Master Catalog

Two Line Element Set (TLE):
1 57288U 23095A   25199.81361825  .00000052  00000-0  68080-4 0  9992
2 57288  86.5035 120.2224 0019373  42.8294 317.4354 13.39516681 99125
Source of the keplerian elements: AFSPC